CW8508 Weather Reports


time (UTC)temp
C
wind
direction
speed
KPH
gust
KPH
rain 1hr
cm
rain 24hr
cm
rain mn
cm
humidity
%
barometer
mb
20260507015511 23 255 0.0 4.8 0.00 0.00 0.00 51 1015.3
20260507015011 23 278 0.0 9.7 0.00 0.00 0.00 50 1015.3
20260507014511 23 292 3.2 9.7 0.00 0.00 0.00 49 1015.3
20260507014011 24 269 3.2 9.7 0.00 0.00 0.00 48 1015.2
20260507013511 25 196 0.0 8.0 0.00 0.00 0.00 47 1015.2
20260507012511 25 190 6.4 11.3 0.00 0.00 0.00 47 1015.1
20260507012011 25 207 3.2 6.4 0.00 0.00 0.00 47 1015.1
20260507011511 25 207 0.0 9.7 0.00 0.00 0.00 47 1015.0
20260507011011 25 205 4.8 9.7 0.00 0.00 0.00 47 1015.0
20260507010511 25 198 4.8 9.7 0.00 0.00 0.00 47 1015.0
20260507010012 25 184 3.2 9.7 0.00 0.00 0.00 46 1014.9
20260507005511 25 219 0.0 9.7 0.00 0.00 0.00 47 1014.9
20260507005011 26 219 8.0 9.7 0.00 0.00 0.00 46 1014.9
20260507004511 26 252 0.0 9.7 0.00 0.00 0.00 46 1014.9
20260507004011 26 183 6.4 14.5 0.00 0.00 0.00 47 1014.9
20260507003511 26 250 6.4 14.5 0.00 0.00 0.00 46 1015.0
20260507003011 26 215 6.4 14.5 0.00 0.00 0.00 46 1015.0
20260507002511 26 219 6.4 14.5 0.00 0.00 0.00 45 1014.9
20260507002011 26 232 0.0 11.3 0.00 0.00 0.00 46 1015.0
20260507001511 26 227 9.7 12.9 0.00 0.00 0.00 46 1014.9
20260507001011 26 180 4.8 12.9 0.00 0.00 0.00 46 1014.9
20260507000511 26 237 6.4 11.3 0.00 0.00 0.00 45 1014.9
20260507000011 26 200 4.8 11.3 0.00 0.00 0.00 46 1014.9
20260506235511 26 197 0.0 11.3 0.00 0.00 0.00 46 1014.8
20260506235011 26 233 8.0 14.5 0.00 0.00 0.00 46 1014.8
20260506234510 26 228 1.6 14.5 0.00 0.00 0.00 45 1014.8
20260506234011 26 219 4.8 14.5 0.00 0.00 0.00 45 1014.8
20260506233510 26 215 12.9 14.5 0.00 0.00 0.00 45 1014.8
20260506233010 27 206 8.0 14.5 0.00 0.00 0.00 44 1014.8
20260506232510 27 234 11.3 14.5 0.00 0.00 0.00 44 1014.9
20260506232011 27 228 9.7 14.5 0.00 0.00 0.00 44 1015.0
20260506230510 27 201 9.7 14.5 0.00 0.00 0.00 43 1014.9
20260506230010 27 266 1.6 12.9 0.00 0.00 0.00 42 1014.8
20260506225010 28 213 3.2 11.3 0.00 0.00 0.00 42 1014.8
20260506224510 28 179 1.6 14.5 0.00 0.00 0.00 41 1015.0
20260506224010 28 218 8.0 14.5 0.00 0.00 0.00 41 1015.0
20260506223510 28 279 1.6 12.9 0.00 0.00 0.00 42 1015.0
20260506223010 28 238 6.4 12.9 0.00 0.00 0.00 41 1015.1
20260506222510 27 263 0.0 12.9 0.00 0.00 0.00 40 1015.1
20260506222010 27 228 9.7 14.5 0.00 0.00 0.00 41 1015.2
20260506221511 27 298 0.0 14.5 0.00 0.00 0.00 41 1015.2
20260506221010 27 262 9.7 12.9 0.00 0.00 0.00 41 1015.2
20260506220510 27 202 4.8 14.5 0.00 0.00 0.00 41 1015.3
20260506220010 27 234 6.4 14.5 0.00 0.00 0.00 41 1015.4
20260506215510 27 229 9.7 12.9 0.00 0.00 0.00 42 1015.5
20260506215010 27 231 8.0 14.5 0.00 0.00 0.00 42 1015.6
20260506214510 27 269 3.2 14.5 0.00 0.00 0.00 42 1015.7
20260506214011 27 231 11.3 14.5 0.00 0.00 0.00 43 1015.7
20260506213511 26 200 1.6 12.9 0.00 0.00 0.00 43 1015.8
20260506213010 26 273 1.6 11.3 0.00 0.00 0.00 45 1015.8
20260506212510 26 188 1.6 11.3 0.00 0.00 0.00 44 1016.0
20260506212010 26 242 0.0 11.3 0.00 0.00 0.00 44 1016.0
20260506211510 26 306 4.8 11.3 0.00 0.00 0.00 44 1016.1
20260506210510 25 236 6.4 12.9 0.00 0.00 0.00 45 1016.4
20260506210010 25 200 6.4 12.9 0.00 0.00 0.00 45 1016.4
20260506205510 25 240 4.8 12.9 0.00 0.00 0.00 44 1016.5
20260506205011 25 181 3.2 11.3 0.00 0.00 0.00 45 1016.5
20260506204011 25 194 0.0 11.3 0.00 0.00 0.00 46 1016.6
20260506203010 25 180 8.0 9.7 0.00 0.00 0.00 46 1016.7
20260506202510 25 228 4.8 9.7 0.00 0.00 0.00 46 1016.9
20260506202010 25 198 4.8 8.0 0.00 0.00 0.00 47 1016.9
20260506201511 24 192 0.0 1.6 0.00 0.00 0.00 49 1017.0
20260506201010 24 142 0.0 1.6 0.00 0.00 0.00 48 1016.9
20260506200510 23 193 0.0 8.0 0.00 0.00 0.00 48 1017.0
20260506195510 23 123 4.8 8.0 0.00 0.00 0.00 50 1017.1
20260506195010 23 179 0.0 4.8 0.00 0.00 0.00 49 1017.2
20260506194510 23 130 0.0 6.4 0.00 0.00 0.00 49 1017.3
20260506194010 23 153 0.0 6.4 0.00 0.00 0.00 50 1017.4
20260506193510 23 202 0.0 9.7 0.00 0.00 0.00 49 1017.4
20260506193011 23 205 0.0 9.7 0.00 0.00 0.00 50 1017.5
20260506192510 23 219 3.2 11.3 0.00 0.00 0.00 49 1017.5
20260506192010 23 184 0.0 11.3 0.00 0.00 0.00 49 1017.6
20260506191511 23 217 0.0 4.8 0.00 0.00 0.00 50 1017.7
20260506191011 22 213 0.0 8.0 0.00 0.00 0.00 52 1017.8
20260506190010 22 271 0.0 3.2 0.00 0.00 0.00 51 1017.8
20260506185511 22 209 0.0 0.0 0.00 0.00 0.00 52 1017.9
20260506185011 22 213 0.0 0.0 0.00 0.00 0.00 52 1018.0
20260506184510 22 180 0.0 0.0 0.00 0.00 0.00 53 1018.0
20260506184010 22 94 0.0 0.0 0.00 0.00 0.00 53 1018.0
20260506183510 21 184 0.0 0.0 0.00 0.00 0.00 53 1018.1
20260506183011 21 232 0.0 0.0 0.00 0.00 0.00 54 1018.1
20260506182011 21 157 0.0 0.0 0.00 0.00 0.00 54 1018.2
20260506181510 21 267 0.0 0.0 0.00 0.00 0.00 54 1018.2
20260506181011 21 209 0.0 0.0 0.00 0.00 0.00 54 1018.2
20260506180510 21 188 0.0 0.0 0.00 0.00 0.00 54 1018.2
20260506175511 20 166 0.0 0.0 0.00 0.00 0.00 57 1018.2
20260506175010 20 161 0.0 0.0 0.00 0.00 0.00 57 1018.2
20260506174511 20 161 0.0 0.0 0.00 0.00 0.00 57 1018.2
20260506172511 20 269 0.0 0.0 0.00 0.00 0.00 58 1018.3
20260506172011 20 270 0.0 0.0 0.00 0.00 0.00 59 1018.3
20260506171511 20 159 0.0 0.0 0.00 0.00 0.00 60 1018.3
20260506171011 19 136 0.0 0.0 0.00 0.00 0.00 60 1018.3
20260506170510 19 105 0.0 0.0 0.00 0.00 0.00 61 1018.2
20260506170011 19 113 0.0 0.0 0.00 0.00 0.00 60 1018.2
20260506165510 18 0.0 0.0 0.00 0.00 0.00 62 1018.2
20260506165010 18 0.0 0.0 0.00 0.00 0.00 62 1018.2
20260506164511 18 0.0 0.0 0.00 0.00 0.00 61 1018.2
20260506164010 18 0.0 0.0 0.00 0.00 0.00 62 1018.3
20260506163510 18 0.0 0.0 0.00 0.00 0.00 64 1018.3
20260506163011 18 0.0 0.0 0.00 0.00 0.00 65 1018.2
20260506162010 17 0.0 0.0 0.00 0.00 0.00 64 1018.3
20260506161510 17 0.0 0.0 0.00 0.00 0.00 66 1018.3
20260506161010 17 0.0 0.0 0.00 0.00 0.00 66 1018.3
20260506144010 11 0.0 0.0 0.00 0.00 0.00 89 1018.4
20260506143511 11 0.0 0.0 0.00 0.00 0.00 89 1018.4
20260506143010 10 0.0 0.0 0.00 0.00 0.00 89 1018.3
20260506142510 10 0.0 0.0 0.00 0.00 0.00 88 1018.3
20260506142011 10 0.0 0.0 0.00 0.00 0.00 88 1018.3
20260506141511 10 0.0 0.0 0.00 0.00 0.00 88 1018.2
20260506141011 10 0.0 0.0 0.00 0.00 0.00 88 1018.3
20260506140510 10 0.0 0.0 0.00 0.00 0.00 88 1018.2
20260506140010 10 0.0 0.0 0.00 0.00 0.00 87 1018.2
20260506135511 10 0.0 0.0 0.00 0.00 0.00 87 1018.1
20260506135011 10 0.0 0.0 0.00 0.00 0.00 87 1018.1
20260506134510 10 0.0 0.0 0.00 0.00 0.00 87 1018.1
20260506134011 10 0.0 0.0 0.00 0.00 0.00 87 1018.1
20260506133511 10 0.0 0.0 0.00 0.00 0.00 87 1018.0
20260506133011 10 0.0 0.0 0.00 0.00 0.00 87 1018.0
20260506132511 10 0.0 0.0 0.00 0.00 0.00 87 1018.0
20260506132011 10 0.0 0.0 0.00 0.00 0.00 87 1018.0
20260506131511 10 0.0 0.0 0.00 0.00 0.00 87 1017.9
20260506131011 10 0.0 0.0 0.00 0.00 0.00 87 1017.8
20260506130510 10 0.0 0.0 0.00 0.00 0.00 87 1017.8
20260506130011 10 0.0 0.0 0.00 0.00 0.00 87 1017.8
20260506125511 10 0.0 0.0 0.00 0.00 0.00 87 1017.7
20260506125011 10 0.0 0.0 0.00 0.00 0.00 87 1017.7
20260506124511 10 0.0 0.0 0.00 0.00 0.00 87 1017.6
20260506124010 10 0.0 0.0 0.00 0.00 0.00 87 1017.6
20260506123511 10 0.0 0.0 0.00 0.00 0.00 87 1017.6
20260506123011 10 0.0 0.0 0.00 0.00 0.00 87 1017.5
20260506122011 10 0.0 0.0 0.00 0.00 0.00 87 1017.3
20260506121511 10 0.0 0.0 0.00 0.00 0.00 86 1017.3
20260506121010 10 0.0 0.0 0.00 0.00 0.00 86 1017.3
20260506120511 10 0.0 0.0 0.00 0.00 0.00 86 1017.3
20260506120010 10 0.0 0.0 0.00 0.00 0.00 86 1017.2
20260506115510 10 0.0 0.0 0.00 0.00 0.00 86 1017.2
20260506114510 10 0.0 0.0 0.00 0.00 0.00 86 1017.3
20260506113511 10 0.0 0.0 0.00 0.00 0.00 86 1017.2
20260506113011 10 0.0 0.0 0.00 0.03 0.00 86 1017.2
20260506112511 10 0.0 0.0 0.00 0.03 0.00 85 1017.1
20260506112011 10 0.0 0.0 0.00 0.03 0.00 85 1017.1
20260506111010 10 0.0 0.0 0.00 0.05 0.00 85 1017.2
20260506110011 11 0.0 0.0 0.00 0.05 0.00 86 1017.1
20260506105511 11 0.0 0.0 0.00 0.05 0.00 86 1017.0
20260506105010 11 0.0 0.0 0.00 0.05 0.00 86 1017.0
20260506104511 11 0.0 0.0 0.00 0.05 0.00 85 1017.0
20260506104010 11 0.0 0.0 0.00 0.05 0.00 85 1017.0
20260506103511 11 0.0 0.0 0.00 0.05 0.00 86 1017.0
20260506103011 11 0.0 0.0 0.00 0.05 0.00 85 1017.1
20260506102511 11 0.0 0.0 0.00 0.05 0.00 85 1017.0
20260506101511 11 0.0 0.0 0.00 0.05 0.00 85 1017.0
20260506101011 11 0.0 0.0 0.00 0.08 0.00 85 1017.1
20260506100511 11 0.0 0.0 0.00 0.08 0.00 85 1017.1
20260506100010 11 0.0 0.0 0.00 0.10 0.00 84 1017.2
20260506095511 11 0.0 0.0 0.00 0.10 0.00 84 1017.2
20260506095011 11 0.0 0.0 0.00 0.10 0.00 84 1017.2
20260506094511 11 0.0 0.0 0.00 0.13 0.00 84 1017.0
20260506094010 11 0.0 0.0 0.00 0.13 0.00 84 1017.1
20260506093011 11 0.0 0.0 0.00 0.13 0.00 84 1017.0
20260506092511 11 0.0 0.0 0.00 0.15 0.00 84 1017.1
20260506092011 11 0.0 0.0 0.00 0.15 0.00 83 1017.1
20260506091511 11 0.0 0.0 0.00 0.15 0.00 83 1017.2
20260506091011 11 0.0 0.0 0.00 0.15 0.00 83 1017.3
20260506085511 11 0.0 0.0 0.00 0.15 0.00 82 1017.4
20260506084511 11 0.0 0.0 0.00 0.15 0.00 82 1017.4
20260506084011 11 0.0 0.0 0.00 0.15 0.00 82 1017.5
20260506083511 11 0.0 0.0 0.00 0.15 0.00 82 1017.5
20260506083011 11 0.0 0.0 0.00 0.15 0.00 81 1017.5
20260506082511 12 0.0 0.0 0.00 0.15 0.00 81 1017.5
20260506082011 12 0.0 0.0 0.00 0.15 0.00 81 1017.5
20260506081511 12 0.0 0.0 0.00 0.15 0.00 81 1017.6
20260506081011 12 0.0 0.0 0.00 0.15 0.00 81 1017.6
20260506080510 12 0.0 0.0 0.00 0.15 0.00 81 1017.6
20260506073511 12 0.0 0.0 0.00 0.15 0.00 79 1017.7
20260506072510 12 0.0 0.0 0.00 0.15 0.00 79 1017.7
20260506072011 12 0.0 0.0 0.00 0.15 0.00 79 1017.7
20260506071011 12 0.0 0.0 0.00 0.15 0.00 79 1017.6
20260506062011 13 0.0 0.0 0.00 0.15 0.15 78 1016.9
20260506061511 13 0.0 0.0 0.00 0.15 0.15 78 1016.9
20260506061011 13 0.0 0.0 0.00 0.15 0.15 78 1016.9
20260506060511 13 0.0 0.0 0.00 0.15 0.15 78 1016.9
20260506050511 13 0.0 0.0 0.00 0.15 0.15 74 1016.5
20260506045011 13 0.0 0.0 0.00 0.15 0.15 73 1016.3
20260506044011 13 0.0 0.0 0.00 0.15 0.15 72 1016.2
20260506043511 13 0.0 0.0 0.00 0.15 0.15 72 1016.2
20260506043011 14 0.0 0.0 0.00 0.15 0.15 72 1016.1
20260506042511 14 0.0 0.0 0.00 0.15 0.15 71 1016.1
20260506042011 14 0.0 0.0 0.00 0.15 0.15 70 1015.9
20260506041511 14 0.0 0.0 0.00 0.15 0.15 70 1015.8
20260506041011 14 0.0 0.0 0.00 0.15 0.15 70 1015.7
20260506040511 14 0.0 0.0 0.00 0.15 0.15 69 1015.6
20260506040011 14 0.0 0.0 0.00 0.15 0.15 69 1015.6
20260506035511 15 0.0 0.0 0.00 0.15 0.15 68 1015.5
20260506035011 15 0.0 0.0 0.00 0.15 0.15 68 1015.4
20260506034511 15 0.0 0.0 0.00 0.15 0.15 68 1015.3
20260506033511 15 0.0 0.0 0.00 0.15 0.15 67 1015.3
20260506032010 15 0.0 0.0 0.00 0.15 0.15 66 1015.1
20260506031511 15 0.0 0.0 0.00 0.15 0.15 66 1015.0
20260506031011 15 0.0 0.0 0.00 0.15 0.15 66 1015.0
20260506030511 15 0.0 0.0 0.00 0.15 0.15 65 1015.0
20260506030011 16 0.0 0.0 0.00 0.15 0.15 64 1014.9
20260506025011 16 0.0 0.0 0.00 0.15 0.15 62 1014.6
20260506024511 16 0.0 0.0 0.00 0.15 0.15 62 1014.6
20260506024011 16 0.0 0.0 0.00 0.15 0.15 61 1014.5
20260506023511 16 0.0 0.0 0.00 0.15 0.15 61 1014.4
20260506023011 17 0.0 0.0 0.00 0.15 0.15 61 1014.4
20260506022011 17 304 0.0 0.0 0.00 0.15 0.15 60 1014.4
20260506021511 17 304 0.0 0.0 0.00 0.15 0.15 59 1014.2
20260506021011 17 304 0.0 0.0 0.00 0.15 0.15 58 1014.1
20260506020011 18 304 0.0 0.0 0.00 0.15 0.15 57 1014.1